Location: ??????
(55.6361°N, 38.0803°E)
Time: 03:29:18
(UTC+00:00)

Tsikada Rocket - Pass Details

Date: 30 March 2020
Orbit: 957 x 1010 km, 82.9° (Epoch: 31 May)

Event Time Altitude Azimuth Distance (km) Brightness Sun altitude
Exits shadow 01:19:01 12° 202° (SSW) 2,609 5.8 -14.7°
Maximum altitude 01:24:56 69° 285° (WNW) 1,082 4.1 -13.9°
Drops below altitude 10° 01:31:23 10° 9° (N) 2,804 6.9 -13.1°
Sets 01:33:57 0° 12° (NNE) 3,756 7.7 -12.8°
